Location: Hurecourt
(47.9030°N, 6.0653°E)
Time: 21:04:59
(UTC+00:00)

ADEOS II - Pass Details

Date: 14 July 2020
Orbit: 799 x 801 km, 98.5° (Epoch: 14 August)

Event Time Altitude Azimuth Distance (km) Brightness Sun altitude
Rises 01:17:10 0° 21° (NNE) 3,322 7.1 -17.2°
Reaches altitude 10° 01:19:43 10° 31° (NNE) 2,386 5.9 -17.1°
Maximum altitude 01:24:30 34° 96° (E) 1,295 3.3 -16.7°
Enters shadow 01:28:38 13° 157° (SSE) 2,159 3.9 -16.4°
